sat.trackr.live / text

‹ back to catalog

ONEWEB-0384

NORAD 49310 · 2021-090AH

PAYLOAD ACTIVE UNKNOWN

§ Identity

Operator
Country
UK
Launch date
2021-10-14
Launch site
VOSTO
Launch vehicle
Mass (kg)
RCS (m²)

Purposes: comms

External: N2YO · Heavens-Above · Gunter

§ Orbital elements

Epoch: 2026-09-08T12:57:00.146592Z

Period
109.02 min
Inclination
87.9137°
Eccentricity
0.0002144
Mean motion
13.20818103 rev/d
Perigee alt
1,180.0 km
Apogee alt
1,183.2 km
Semi-major
7,559.7 km
B*
1.5558e-4
RAAN
257.8518°
Arg perigee
104.1382°
Mean anomaly
255.9990°
Rev number
24,083

§ Raw data

ONEWEB-03841 49310U 21090AH  26251.53958503  .00000076  00000+0  15558-3 0  99922 49310  87.9137 257.8518 0002144 104.1382 255.9990 13.20818103240833

JSON: /api/v1/satellites/49310 · /tle

For live sub-satellite position, see the globe view (requires WebGL).

§ Visibility from observer

Set your observer location to see the next 7 days of passes ≥ 10°. The values pass through the URL so the page stays shareable.

No JS? Fill the form by hand. The geolocation button needs JavaScript.